AC4JF-1 Weather Reports


Display with metric or nautical units.
time (UTC)temp
F
wind
direction
speed
MPH
gust
MPH
rain 1hr
in
rain 24hr
in
rain mn
in
humidity
%
barometer
mb
20190322201234 61 287 0.0 0.0 0.00 0.00 0.00 32 1012.9
20190322200748 61 297 0.0 0.0 0.00 0.00 0.00 33 1013.0
20190322200244 60 290 0.0 0.0 0.00 0.00 0.00 34 1013.1
20190322195754 60 302 0.0 0.0 0.00 0.00 0.00 34 1013.0
20190322195247 60 294 0.0 0.0 0.00 0.00 0.00 34 1013.2
20190322194740 60 295 0.0 0.0 0.00 0.00 0.00 36 1013.2
20190322194253 60 285 0.0 0.0 0.00 0.00 0.00 36 1013.4
20190322193747 60 259 0.0 0.0 0.00 0.00 0.00 37 1013.4
20190322193241 60 255 0.0 0.0 0.00 0.00 0.00 41 1013.4
20190322192735 58 294 0.0 0.0 0.00 0.00 0.00 39 1013.5
20190322192247 58 272 0.0 0.0 0.00 0.00 0.00 38 1013.6
20190322191741 59 290 0.0 0.0 0.00 0.00 0.00 41 1013.7
20190322191253 58 270 0.0 0.0 0.00 0.00 0.00 41 1013.8
20190322190747 58 260 0.0 0.0 0.00 0.00 0.00 42 1013.9
20190322190241 56 292 0.0 0.0 0.00 0.00 0.00 42 1013.9
20190322185752 56 280 0.0 0.0 0.00 0.00 0.00 41 1014.1
20190322185244 56 260 0.0 0.0 0.00 0.00 0.00 42 1014.3
20190322184737 57 330 0.0 0.0 0.00 0.00 0.00 41 1014.0
20190322184251 56 254 0.0 0.0 0.00 0.00 0.00 42 1014.4
20190322183744 57 315 0.0 0.0 0.00 0.00 0.00 44 1014.4
20190322183239 56 271 0.0 0.0 0.00 0.00 0.00 43 1014.4
20190322182749 56 283 0.0 0.0 0.00 0.00 0.00 43 1014.6
20190322182243 56 283 0.0 0.0 0.00 0.00 0.00 44 1014.6
20190322181735 55 232 0.0 0.0 0.00 0.00 0.00 44 1014.9
20190322181249 55 277 0.0 0.0 0.00 0.00 0.00 45 1014.8
20190322180742 55 291 0.0 0.0 0.00 0.00 0.00 46 1014.7
20190322180257 55 257 0.0 0.0 0.00 0.00 0.00 46 1015.0
20190322175747 54 289 0.0 0.0 0.00 0.00 0.00 45 1015.0
20190322175241 53 269 0.0 0.0 0.00 0.00 0.00 46 1015.2
20190322174738 53 281 0.0 0.0 0.00 0.00 0.00 46 1015.2
20190322174252 53 280 0.0 0.0 0.00 0.00 0.00 47 1015.3
20190322173744 53 238 0.0 0.0 0.00 0.00 0.00 46 1015.3
20190322173240 53 279 0.0 0.0 0.00 0.00 0.00 49 1015.5
20190322172750 52 271 0.0 0.0 0.00 0.00 0.00 47 1015.6
20190322172243 53 281 0.0 0.0 0.00 0.00 0.00 48 1015.6
20190322171736 52 248 0.0 0.0 0.00 0.00 0.00 47 1015.7
20190322171250 53 247 0.0 0.0 0.00 0.00 0.00 49 1015.8
20190322170743 52 229 0.0 0.0 0.00 0.00 0.00 49 1015.9
20190322170240 51 273 0.0 0.0 0.00 0.00 0.00 51 1016.0
20190322165749 51 284 0.0 0.0 0.00 0.00 0.00 49 1016.1
20190322165243 51 246 0.0 1.0 0.00 0.00 0.00 50 1016.1
20190322164736 50 249 0.0 1.0 0.00 0.00 0.00 51 1016.1
20190322164251 50 267 0.0 0.0 0.00 0.00 0.00 50 1016.2
20190322163743 50 268 0.0 0.0 0.00 0.00 0.00 51 1016.3
20190322163239 49 261 0.0 0.0 0.00 0.00 0.00 52 1016.4
20190322162749 49 284 0.0 0.0 0.00 0.00 0.00 50 1016.4
20190322162243 50 259 0.0 1.0 0.00 0.00 0.00 51 1016.6
20190322161736 49 265 0.0 1.0 0.00 0.00 0.00 50 1016.5
20190322161250 49 272 0.0 1.0 0.00 0.00 0.00 56 1016.6
20190322160747 49 271 0.0 0.0 0.00 0.00 0.00 54 1016.7
20190322160244 48 310 0.0 0.0 0.00 0.00 0.00 51 1016.8
20190322155754 49 293 0.0 1.0 0.00 0.00 0.00 52 1016.8
20190322155247 49 250 0.0 1.0 0.00 0.00 0.00 52 1016.8
20190322154740 47 286 0.0 1.0 0.00 0.00 0.00 55 1016.8
20190322154255 48 288 0.0 1.0 0.00 0.00 0.00 53 1016.8
20190322153747 47 278 0.0 1.0 0.00 0.00 0.00 56 1016.8
20190322153243 47 311 0.0 0.0 0.00 0.00 0.00 54 1016.9
20190322152753 47 289 0.0 0.0 0.00 0.00 0.00 54 1016.9
20190322152246 48 275 0.0 1.0 0.00 0.00 0.00 54 1016.9
20190322151738 47 292 0.0 2.0 0.00 0.00 0.00 54 1017.0
20190322151252 47 286 0.0 2.0 0.00 0.00 0.00 54 1017.0
20190322150746 46 273 0.0 1.0 0.00 0.00 0.00 55 1017.0
20190322150241 47 267 0.0 2.0 0.00 0.00 0.00 56 1017.1
20190322145750 46 261 0.0 2.0 0.00 0.00 0.00 55 1017.1
20190322145244 46 349 0.0 0.0 0.00 0.00 0.00 55 1017.1
20190322144737 46 323 0.0 1.0 0.00 0.00 0.00 57 1017.1
20190322144251 45 328 0.0 1.0 0.00 0.00 0.00 58 1017.0
20190322143744 45 328 0.0 0.0 0.00 0.00 0.00 58 1017.2
20190322143242 45 276 0.0 3.0 0.00 0.00 0.00 57 1017.2
20190322142752 46 248 0.0 3.0 0.00 0.00 0.00 58 1017.0
20190322142246 45 218 0.0 3.0 0.00 0.00 0.00 59 1017.0
20190322141739 45 219 0.0 1.0 0.00 0.00 0.00 59 1017.2
20190322141253 44 219 0.0 1.0 0.00 0.00 0.00 64 1017.3
20190322140746 44 219 0.0 0.0 0.00 0.00 0.00 62 1017.3
20190322140243 44 219 0.0 0.0 0.00 0.00 0.00 62 1017.2
20190322135752 44 221 0.0 0.0 0.00 0.00 0.00 63 1017.3
20190322135246 44 216 0.0 0.0 0.00 0.00 0.00 64 1017.1
20190322134738 43 221 0.0 0.0 0.00 0.00 0.00 64 1017.1
20190322134253 43 222 0.0 0.0 0.00 0.00 0.00 64 1017.2
20190322133745 43 231 0.0 2.0 0.00 0.00 0.00 66 1017.2
20190322133241 43 236 0.0 2.0 0.00 0.00 0.00 67 1017.2
20190322132750 43 246 0.0 1.0 0.00 0.00 0.00 67 1017.2
20190322132244 42 253 0.0 1.0 0.00 0.00 0.00 69 1017.0
20190322131736 42 255 0.0 0.0 0.00 0.00 0.00 67 1017.1
20190322131249 42 260 0.0 0.0 0.00 0.00 0.00 68 1017.2
20190322130743 42 267 0.0 0.0 0.00 0.00 0.00 69 1017.2
20190322130258 42 270 0.0 2.0 0.00 0.00 0.00 70 1017.2
20190322125746 42 271 0.0 2.0 0.00 0.00 0.00 70 1017.2
20190322125245 42 271 0.0 0.0 0.00 0.00 0.00 70 1017.0
20190322124737 41 271 0.0 0.0 0.00 0.00 0.00 70 1017.0
20190322124251 41 276 0.0 0.0 0.00 0.00 0.00 71 1017.0
20190322123744 41 278 0.0 0.0 0.00 0.00 0.00 70 1017.0
20190322123240 41 280 0.0 0.0 0.00 0.00 0.00 71 1017.1
20190322122749 41 281 0.0 0.0 0.00 0.00 0.00 70 1017.2
20190322122243 41 282 0.0 0.0 0.00 0.00 0.00 71 1017.3
20190322121736 41 283 0.0 0.0 0.00 0.00 0.00 71 1017.2
20190322121250 41 283 0.0 0.0 0.00 0.00 0.00 69 1017.3
20190322120743 41 288 0.0 0.0 0.00 0.00 0.00 70 1017.2
20190322120239 41 288 0.0 0.0 0.00 0.00 0.00 71 1017.1
20190322115750 41 288 0.0 0.0 0.00 0.00 0.00 71 1017.1
20190322115243 41 288 0.0 0.0 0.00 0.00 0.00 72 1017.1
20190322114737 41 288 0.0 0.0 0.00 0.00 0.00 72 1017.2
20190322114251 41 290 0.0 0.0 0.00 0.00 0.00 72 1017.1
20190322113744 41 292 0.0 0.0 0.00 0.00 0.00 72 1017.1
20190322113240 41 293 0.0 0.0 0.00 0.00 0.00 71 1017.1
20190322112748 41 293 0.0 0.0 0.00 0.00 0.00 71 1017.0
20190322112253 41 296 0.0 0.0 0.00 0.00 0.00 70 1017.0
20190322111740 41 299 0.0 0.0 0.00 0.00 0.00 70 1017.0
20190322111253 41 305 0.0 0.0 0.00 0.00 0.00 70 1016.9
20190322110746 41 306 0.0 0.0 0.00 0.00 0.00 70 1016.8
20190322110242 41 306 0.0 0.0 0.00 0.00 0.00 70 1016.8
20190322105753 41 306 0.0 0.0 0.00 0.00 0.00 70 1016.8
20190322105247 41 306 0.0 0.0 0.00 0.00 0.00 70 1016.8
20190322104740 41 306 0.0 0.0 0.00 0.00 0.00 70 1016.7
20190322104253 41 306 0.0 0.0 0.00 0.00 0.00 70 1016.5
20190322103747 41 306 0.0 0.0 0.00 0.00 0.00 71 1016.5
20190322103243 41 306 0.0 0.0 0.00 0.00 0.00 71 1016.5
20190322102751 40 306 0.0 0.0 0.00 0.00 0.00 71 1016.3
20190322102245 40 306 0.0 0.0 0.00 0.00 0.00 71 1016.3
20190322101739 40 306 0.0 0.0 0.00 0.00 0.00 71 1016.3
20190322101252 40 306 0.0 0.0 0.00 0.00 0.00 72 1016.3
20190322100746 40 306 0.0 0.0 0.00 0.00 0.00 72 1016.2
20190322100242 40 306 0.0 0.0 0.00 0.00 0.00 72 1016.1
20190322095750 40 306 0.0 0.0 0.00 0.00 0.00 72 1016.1
20190322095243 40 306 0.0 0.0 0.00 0.00 0.00 72 1016.1
20190322094736 40 306 0.0 0.0 0.00 0.00 0.00 73 1016.1
20190322094251 40 306 0.0 0.0 0.00 0.00 0.00 73 1016.0
20190322093748 40 306 0.0 0.0 0.00 0.00 0.00 73 1016.0
20190322093244 40 308 0.0 0.0 0.00 0.00 0.00 73 1016.0
20190322092753 40 308 0.0 0.0 0.00 0.00 0.00 73 1016.0
20190322092247 40 309 0.0 0.0 0.00 0.00 0.00 73 1016.0
20190322091740 40 309 0.0 0.0 0.00 0.00 0.00 73 1016.0
20190322091253 40 310 0.0 0.0 0.00 0.00 0.00 73 1016.0
20190322090746 40 313 0.0 0.0 0.00 0.00 0.00 73 1016.1
20190322090241 40 313 0.0 0.0 0.00 0.00 0.00 74 1016.1
20190322085752 40 314 0.0 0.0 0.00 0.00 0.00 74 1016.1
20190322085245 40 314 0.0 0.0 0.00 0.00 0.00 74 1016.1
20190322084738 40 315 0.0 0.0 0.00 0.00 0.00 74 1016.0
20190322084251 40 316 0.0 0.0 0.00 0.00 0.00 74 1016.0
20190322083745 40 318 0.0 0.0 0.00 0.00 0.00 74 1016.0
20190322083300 40 319 0.0 0.0 0.00 0.00 0.00 74 1016.1
20190322082749 40 319 0.0 0.0 0.00 0.00 0.00 73 1016.1
20190322082242 40 326 0.0 0.0 0.00 0.00 0.00 73 1016.1
20190322081736 40 327 0.0 0.0 0.00 0.00 0.00 73 1016.1
20190322081250 40 327 0.0 0.0 0.00 0.00 0.00 73 1016.2
20190322080744 40 327 0.0 0.0 0.00 0.00 0.00 73 1016.2
20190322080243 40 327 0.0 0.0 0.00 0.00 0.00 72 1016.2
20190322075753 40 328 0.0 0.0 0.00 0.00 0.00 72 1016.3
20190322075246 40 329 0.0 0.0 0.00 0.00 0.00 72 1016.3
20190322074738 40 329 0.0 0.0 0.00 0.00 0.00 71 1016.3
20190322074253 40 329 0.0 0.0 0.00 0.00 0.00 71 1016.3
20190322073746 40 329 0.0 0.0 0.00 0.00 0.00 71 1016.3
20190322073241 40 329 0.0 0.0 0.00 0.00 0.00 71 1016.4
20190322072752 40 329 0.0 0.0 0.00 0.00 0.00 70 1016.4
20190322072246 40 329 0.0 2.0 0.00 0.00 0.00 70 1016.4
20190322071739 41 329 0.0 2.0 0.00 0.00 0.00 69 1016.4
20190322071252 41 329 0.0 0.0 0.00 0.00 0.00 69 1016.4
20190322070747 41 329 0.0 0.0 0.00 0.00 0.00 69 1016.4
20190322070241 41 329 0.0 0.0 0.00 0.00 0.00 69 1016.4
20190322065751 41 329 0.0 0.0 0.00 0.00 0.00 68 1016.3
20190322065244 41 329 0.0 0.0 0.00 0.00 0.00 68 1016.4
20190322064738 41 329 0.0 0.0 0.00 0.00 0.00 67 1016.3
20190322064252 41 329 0.0 0.0 0.00 0.00 0.00 71 1016.3
20190322063746 41 329 0.0 0.0 0.00 0.00 0.00 67 1016.3
20190322063241 41 330 0.0 0.0 0.00 0.00 0.00 67 1016.2
20190322062735 41 330 0.0 0.0 0.00 0.00 0.00 67 1016.3
20190322062248 41 330 0.0 0.0 0.00 0.00 0.00 67 1016.2
20190322061742 41 323 0.0 0.0 0.00 0.00 0.00 67 1016.2
20190322061255 41 323 0.0 0.0 0.00 0.00 0.00 67 1016.1
20190322060748 41 323 0.0 0.0 0.00 0.00 0.00 67 1016.2
20190322060243 41 323 0.0 0.0 0.00 0.00 0.00 67 1016.1
20190322055754 42 323 0.0 0.0 0.00 0.00 0.00 67 1016.1
20190322055247 42 323 0.0 0.0 0.00 0.00 0.00 66 1016.0
20190322054741 42 322 0.0 0.0 0.00 0.00 0.00 66 1016.0
20190322054254 42 321 0.0 0.0 0.00 0.00 0.00 66 1015.9
20190322053749 42 321 0.0 0.0 0.00 0.00 0.00 66 1015.9
20190322053243 42 307 0.0 0.0 0.00 0.00 0.00 67 1015.9
20190322052754 42 304 0.0 0.0 0.00 0.00 0.00 67 1015.9
20190322052248 42 302 0.0 0.0 0.00 0.00 0.00 67 1015.8
20190322051743 42 298 0.0 0.0 0.00 0.00 0.00 67 1015.9
20190322051236 42 298 0.0 0.0 0.00 0.00 0.00 67 1016.1
20190322050751 42 297 0.0 0.0 0.00 0.00 0.00 68 1016.2
20190322045744 42 298 0.0 0.0 0.00 0.00 0.00 68 1016.2
20190322045337 42 298 0.0 0.0 0.00 0.00 0.00 67 1016.2
20190322044745 42 296 0.0 0.0 0.00 0.00 0.00 67 1016.1
20190322044240 42 296 0.0 0.0 0.00 0.00 0.00 67 1016.2
20190322043751 42 300 0.0 0.0 0.00 0.00 0.00 67 1016.3
20190322042248 43 311 0.0 0.0 0.00 0.00 0.00 65 1016.1
20190322041741 43 306 0.0 0.0 0.00 0.00 0.00 66 1016.1
20190322041239 42 310 0.0 0.0 0.00 0.00 0.00 66 1016.1
20190322040812 42 300 0.0 0.0 0.00 0.00 0.00 67 1016.1
20190322040305 42 302 0.0 0.0 0.00 0.00 0.00 67 1016.0
20190322035752 42 304 0.0 0.0 0.00 0.00 0.00 67 1016.1
20190322035245 42 293 0.0 0.0 0.00 0.00 0.00 67 1016.1
20190322034737 43 292 0.0 0.0 0.00 0.00 0.00 67 1016.0
20190322034311 42 298 0.0 0.0 0.00 0.00 0.00 67 1016.0
20190322033741 42 307 0.0 0.0 0.00 0.00 0.00 68 1016.0
20190322033256 43 309 0.0 0.0 0.00 0.00 0.00 67 1015.9
20190322032745 42 315 0.0 0.0 0.00 0.00 0.00 67 1015.9
20190322032239 42 307 0.0 0.0 0.00 0.00 0.00 67 1015.9
20190322031812 43 310 0.0 0.0 0.00 0.00 0.00 67 1015.9
20190322031244 42 313 0.0 0.0 0.00 0.00 0.00 67 1015.9
20190322030736 43 314 0.0 0.0 0.00 0.00 0.00 67 1015.9
20190322030251 43 315 0.0 0.0 0.00 0.00 0.00 66 1015.9
20190322025743 43 315 0.0 0.0 0.00 0.00 0.00 66 1015.9
20190322025255 43 317 0.0 0.0 0.00 0.00 0.00 66 1015.8
20190322024746 43 317 0.0 0.0 0.00 0.00 0.00 65 1015.7
20190322024240 43 317 0.0 0.0 0.00 0.00 0.00 65 1015.6
20190322023754 43 316 0.0 0.0 0.00 0.00 0.00 66 1015.5
20190322023250 43 315 0.0 0.0 0.00 0.00 0.00 66 1015.5
20190322022738 43 315 0.0 0.0 0.00 0.00 0.00 66 1015.4
20190322022252 43 317 0.0 0.0 0.00 0.00 0.00 67 1015.3
20190322021745 43 315 0.0 0.0 0.00 0.00 0.00 67 1015.3
20190322021240 43 321 0.0 0.0 0.00 0.00 0.00 68 1015.2
20190322020736 43 312 0.0 0.0 0.00 0.00 0.00 69 1015.2
20190322020253 43 311 0.0 0.0 0.00 0.00 0.00 72 1015.1
20190322015741 43 311 0.0 0.0 0.00 0.00 0.00 73 1015.0
20190322015236 43 313 0.0 0.0 0.00 0.00 0.00 75 1015.0
20190322014748 43 315 0.0 0.0 0.00 0.00 0.00 76 1014.9
20190322014243 43 315 0.0 0.0 0.00 0.00 0.00 75 1014.9
20190322013736 44 315 0.0 0.0 0.00 0.00 0.00 74 1014.7
20190322013252 44 316 0.0 0.0 0.00 0.00 0.00 74 1014.6
20190322012743 44 315 0.0 0.0 0.00 0.00 0.00 74 1014.5
20190322012235 44 328 0.0 0.0 0.00 0.00 0.00 74 1014.4
20190322011749 44 330 0.0 0.0 0.00 0.00 0.00 73 1014.3
20190322011243 44 325 0.0 0.0 0.00 0.00 0.00 73 1014.0
20190322010736 44 323 0.0 0.0 0.00 0.00 0.00 74 1014.0
20190322010251 44 328 0.0 0.0 0.00 0.00 0.00 74 1014.0
20190322005741 44 328 0.0 0.0 0.00 0.00 0.00 76 1013.9
20190322005235 44 322 0.0 0.0 0.00 0.00 0.00 77 1013.8
20190322004748 44 341 0.0 0.0 0.00 0.00 0.00 78 1013.7
20190322004241 44 331 0.0 0.0 0.00 0.00 0.00 79 1013.7
20190322003735 44 338 0.0 0.0 0.00 0.00 0.00 80 1013.6
20190322003251 44 345 0.0 0.0 0.00 0.00 0.00 81 1013.4
20190322002745 44 336 0.0 0.0 0.00 0.00 0.00 81 1013.2
20190322002239 44 330 0.0 0.0 0.00 0.00 0.00 82 1013.3
20190322001751 44 340 0.0 0.0 0.00 0.00 0.00 82 1013.2
20190322001245 44 340 0.0 0.0 0.00 0.00 0.00 83 1013.1
20190322000738 44 357 0.0 0.0 0.00 0.00 0.00 83 1012.9
20190322000254 44 357 0.0 0.0 0.00 0.00 0.00 83 1012.8
20190321235744 44 333 0.0 0.0 0.00 0.00 0.00 83 1012.8
20190321235238 44 331 0.0 0.0 0.00 0.00 0.00 82 1012.5
20190321234751 44 312 0.0 0.0 0.00 0.00 0.00 81 1012.6
20190321234244 44 286 0.0 4.0 0.00 0.00 0.00 80 1012.5
20190321233737 45 310 0.0 4.0 0.00 0.00 0.00 78 1012.4
20190321233253 47 306 0.0 0.0 0.00 0.00 0.00 79 1012.4
20190321232743 47 271 0.0 0.0 0.00 0.00 0.00 79 1012.0
20190321232236 47 276 0.0 0.0 0.00 0.00 0.00 79 1012.0
20190321231748 47 277 0.0 0.0 0.00 0.00 0.00 78 1011.7
20190321231241 47 277 0.0 0.0 0.00 0.00 0.00 78 1011.6
20190321230753 47 279 0.0 0.0 0.00 0.00 0.00 78 1011.6
20190321230250 47 304 0.0 0.0 0.00 0.00 0.00 78 1011.6
20190321225739 46 339 0.0 1.0 0.00 0.00 0.00 78 1011.6
20190321225238 46 342 0.0 1.0 0.00 0.00 0.00 79 1011.5
20190321224750 46 342 0.0 1.0 0.00 0.00 0.00 80 1011.4
20190321224244 46 342 0.0 0.0 0.00 0.00 0.00 79 1011.5
20190321223737 46 342 0.0 0.0 0.00 0.00 0.00 78 1011.4
20190321223252 47 342 0.0 0.0 0.00 0.00 0.00 76 1011.3
20190321222741 48 325 0.0 0.0 0.00 0.00 0.00 73 1011.3
20190321222235 50 352 0.0 0.0 0.00 0.00 0.00 72 1011.3
20190321221748 50 357 0.0 0.0 0.00 0.00 0.00 73 1011.1
20190321221241 51 357 0.0 0.0 0.00 0.00 0.00 69 1011.1
20190321220754 51 296 0.0 0.0 0.00 0.00 0.00 68 1010.9
20190321220250 52 275 0.0 1.0 0.00 0.00 0.00 69 1010.9
20190321215739 52 264 0.0 1.0 0.00 0.00 0.00 71 1010.9
20190321215253 52 248 0.0 1.0 0.00 0.00 0.00 75 1010.9
20190321214746 51 247 0.0 1.0 0.00 0.00 0.00 74 1011.0
20190321214240 51 247 0.0 1.0 0.00 0.00 0.00 78 1010.9
20190321213754 50 247 0.0 0.0 0.00 0.00 0.00 76 1010.9
20190321213250 50 250 0.0 0.0 0.00 0.00 0.00 79 1010.9
20190321212738 49 251 0.0 0.0 0.00 0.00 0.00 78 1010.9
20190321212252 48 250 0.0 0.0 0.00 0.00 0.00 78 1010.9
20190321211745 48 251 0.0 1.0 0.00 0.00 0.00 79 1010.9
20190321211242 48 251 0.0 1.0 0.00 0.00 0.00 80 1010.9
20190321210736 48 251 0.0 1.0 0.00 0.00 0.00 81 1010.8
20190321210251 48 251 0.0 1.0 0.00 0.00 0.00 82 1010.8
20190321205740 47 251 0.0 1.0 0.00 0.00 0.00 82 1010.8
20190321205253 47 251 0.0 0.0 0.00 0.00 0.00 81 1010.8
20190321204747 47 252 0.0 0.0 0.00 0.00 0.00 81 1011.1
20190321204241 48 256 0.0 0.0 0.00 0.00 0.00 78 1011.3
20190321203755 48 254 0.0 0.0 0.00 0.00 0.00 76 1011.3
20190321203251 49 227 0.0 1.0 0.00 0.00 0.00 75 1011.2
20190321202741 49 223 0.0 2.0 0.00 0.00 0.00 75 1011.2
20190321202254 49 215 0.0 2.0 0.00 0.00 0.00 76 1011.2
20190321201747 49 220 0.0 0.0 0.00 0.00 0.00 75 1011.1